Regional Weather Roundup
Issued by NWS Grand Forks, ND

Home | Current Version | Previous Version | Graphics & Text | Print | Product List | Glossary On
Versions: 1 2 3 4 5 6 7 8 9 10 11 12 13 14 15 16 17 18 19 20 21 22 23 24 25 26 27 28 29 30 31 32 33 34 35 36 37 38 39 40 41 42 43 44 45 46 47 48 49 50
000
ASUS43 KFGF 241631
RWRFGF
PRAIRIE TO PINES  WEATHER ROUNDUP
NATIONAL WEATHER SERVICE EASTERN NORTH DAKOTA/GRAND FORKS ND
1100 AM CDT FRI MAR 24 2017

 **SATELLITE DATA USED TO AUGMENT SKY COVER AT AUTOMATED STATIONS**
 *****  WEATHER ACROSS EASTERN NORTH DAKOTA  *****

CITY           SKY/WX    TMP DP  RH WIND       PRES   REMARKS
GRAND FORKS    FAIR      34  29  82 N16       30.17R WCI  24
GRAND FRKS AFB FAIR      34  27  77 N16G22    30.18R WCI  23
DEVILS LAKE    FAIR      30  24  78 NE15      30.18R WCI  19
FARGO          PTSUNNY   38  31  76 N15       30.15R
WAHPETON ARPT  CLOUDY    36  32  87 N13       30.14R
$$

 ***** WEATHER ACROSS CENTRAL AND WESTERN NORTH DAKOTA  *****

CITY           SKY/WX    TMP DP  RH WIND       PRES   REMARKS
BISMARCK       FAIR      36  31  82 E7        30.18R
MINOT          CLOUDY    33  27  78 E9        30.17R
JAMESTOWN      FAIR      34  27  75 NE10      30.15R
MINOT AFB      FAIR      31  26  79 SE12      30.16R WCI  22
GARRISON         N/A     32  27  81 E10       30.15R WCI  24
WILLISTON      FAIR      40  30  67 SE7       30.12R
DICKINSON      FAIR      39  31  72 SE7       30.09R
HETTINGER      FOG       36  35  96 E3        30.14R VSB 1
$$

 *****  OTHER AIRPORT OBSERVATIONS IN OUR AREA  *****

CITY           SKY/WX    TMP DP  RH WIND       PRES   REMARKS
WALHALLA       NOT AVBL
GRAFTON AIRPOR CLOUDY    32  28  86 N15       30.22R WCI  22
VALLEY CITY AR MIX PCPN  34  32  93 NE15      30.17R WCI  24
CANDO          NOT AVBL
CAVALIER APRT    N/A     30  27  86 N13       30.21R WCI  20
GWINNER        CLOUDY    34  34 100 MISG      30.14R FOG
SHEYENNE NWR     N/A     35  33  91 N9        29.95S
ROLLA          FAIR      27  25  93 NE13      30.17S WCI  16
 ***** THE ABOVE OBSERVATIONS ARE NON NWS ARE NOT QUALITY
       CONTROLLED AND MAY MIS-REPORT RAIN FOR SNOW...
$$

  *****  WEATHER ACROSS NORTHERN MINNESOTA  *****

CITY           SKY/WX    TMP DP  RH WIND       PRES   REMARKS
FLAG ISLAND    CLOUDY    32  25  74 N15       30.14R WCI  22
WARROAD        FAIR      36  27  69 N12G20    30.15R
ROSEAU         FAIR      36  28  75 N12       30.15R
HALLOCK        CLOUDY    34  28  80 N14       30.19R WCI  24
THF RVR FALLS  CLOUDY    34  27  75 N15       30.14R WCI  24
BAUDETTE       FAIR      35  28  75 NW12      30.10R
WASKISH        PTSUNNY   37  30  75 N9        30.10R
CROOKSTON      CLOUDY    32  28  86 N13       30.18R WCI  22
STEPHEN NDAWN    N/A     32  28  86 N14         N/A  WCI  22
GREENBUSH NDAW   N/A     34  28  80 N12         N/A
$$
  *****  WEATHER ACROSS CENTRAL AND WEST MINNESOTA  *****

CITY           SKY/WX    TMP DP  RH WIND       PRES   REMARKS
FOSSTON        PTSUNNY   32  30  93 N7        30.13R
BEMIDJI        CLOUDY    34  31  90 N10       30.09R
PARK RAPIDS    CLOUDY    37  29  72 N13       30.06R
ELBOW LAKE     CLOUDY    36  33  91 NE7       30.10R
WADENA         CLOUDY    34  34 100 N7        30.08R
DETROIT LAKES  PTSUNNY   37  34  87 N8        30.10R
MOORHEAD       CLOUDY    36  32  87 N14       30.15R
FERGUS FALLS   CLOUDY    37  34  87 N6        30.14R
MORRIS MN      FAIR      37  36  93 N12       30.08R FOG
STAPLES        CLOUDY    34  34 100 N8        30.08R
$$
  *****  WEATHER ELSEWHERE ACROSS MINNESOTA  *****

CITY           SKY/WX    TMP DP  RH WIND       PRES   REMARKS
DULUTH         CLOUDY    34  33  96 N9        30.02R FOG
INTRNTL FALLS  CLOUDY    37  30  75 N8        30.08R
ELY            CLOUDY    34  34 100 CALM      30.04R FOG
CLOQUET        CLOUDY    36  32  87 N8G18     30.04R FOG
WHEATON        CLOUDY    37  34  87 N12       30.14R
BRAINERD       CLOUDY    35  33  92 N13       30.06R FOG
HIBBING        CLOUDY    33  32  96 N7        30.03R FOG
ALEXANDRIA     CLOUDY    35  34  96 N13       30.07R
SAINT CLOUD    CLOUDY    40  36  86 N10       30.04R
MINNEAPOLIS    CLOUDY    39  35  86 N10       30.01R
$$

  *****  WEATHER ACROSS SOUTH DAKOTA  *****

CITY           SKY/WX    TMP DP  RH WIND       PRES   REMARKS
SIOUX FALLS    CLOUDY    39  36  89 N14G26    30.00R
BROOKINGS      CLOUDY    38  34  85 NE16G22   30.03R
WATERTOWN      CLOUDY    36  34  92 NE13      30.07R
HURON          CLOUDY    38  36  92 N12       30.09R
SISSETON         N/A     36  35  96 NE13      30.11R
ABERDEEN       CLOUDY    37  30  75 NE14      30.14R
MITCHELL       CLOUDY    42  37  82 N16       30.04F
PIERRE         FAIR      44  34  67 N7        30.10R
MOBRIDGE       FAIR      43  31  62 E6        30.10R
RAPID CITY     FAIR      52  36  54 NW9       30.11R
$$

  *****  SOME WEATHER IN NEARBY STATES *****

CITY           SKY/WX    TMP DP  RH WIND       PRES   REMARKS
GLASGOW MT     FAIR      40  33  76 SE8       30.06S
GREAT FALLS MT FAIR      46  22  38 S12       29.95F
CHEYENNE WY    FLURRIES  35  33  92 N18G25    30.10S WCI  24
SCOTTSBLUFF NE FAIR      47  36  65 N18       30.09S
OMAHA NE       CLOUDY    49  44  83 N16       29.89R
DES MOINES IA  LGT RAIN  63  50  62 W13       29.86R
DAVENPORT IA     N/A     70  47  43 SW29G37   29.88R
CHICAGO IL     PTSUNNY   70  49  47 SW17G31   29.91S
EAU CLAIRE WI  CLOUDY    39  38  96 NE7       29.95R FOG
LA CROSSE WI   LGT RAIN  42  40  92 N8        29.92R FOG
$$

  *****  SOME NATIONAL WEATHER *****

CITY           SKY/WX    TMP DP  RH WIND       PRES   REMARKS
LA GUARDIA NY  PTSUNNY   47  21  35 SW16G23   30.39F
RALEIGH NC     FAIR      62  41  46 SW12      30.50F
ATLANTA GA     FAIR      62  49  62 SE8       30.44F
NEW ORLEANS LA PTSUNNY   76  64  66 SE23G31   30.19R
OKLAHOMA CITY  PTSUNNY   69  55  60 S25G35    29.76F
ALBUQUERQUE NM PTSUNNY   51  27  39 N20G37    30.04R
SALT LAKE CITY FAIR      44  34  67 SE8       30.22S
LOS ANGELES CA FAIR      58  51  78 VRB6      30.25S
BOISE ID       CLOUDY    50  27  40 SE17      30.00F
SEATTLE WA     LGT RAIN  47  44  90 S9        29.78S
$$

*** WEATHER ACROSS MANITOBA...SASKATCHEWAN AND ONTARIO ***
                ***ONTARIO***

CITY           SKY/WX    TMP DP  RH WIND       PRES   REMARKS
GERALDTON      FLURRIES  28  25  86 N14G22    30.04R WCI  17
THUNDER BAY    CLOUDY    37  34  87 VRB2      30.03R
SIOUX LOOKOUT  CLOUDY    30  23  74 N5        30.11R
TORONTO        PTSUNNY   43  39  87 SW7       29.99F
BIG TROUT LK   SUNNY      3  -8  60 NW6       30.33R WCI  -8
PICKLE LAKE    MOSUNNY   25  12  58 NE8       30.17R WCI  16
DRYDEN         CLOUDY    34  23  64 NE14G21   30.10R WCI  24
KENORA         PTSUNNY   32  21  64 N8        30.13R WCI  25
$$
                *** MANITOBA***

CITY           SKY/WX    TMP DP  RH WIND       PRES   REMARKS
BRANDON        PTSUNNY   28  21  74 NE8       30.21R WCI  20
DAUPHIN        CLOUDY    28  25  86 NE5       30.26R WCI  23
ISLAND LAKE    SUNNY      5  -4  66 N3        30.38R
PILOT MOUND      N/A     28  21  74 NE9         N/A  WCI  20
THE PAS        CLOUDY    10   3  72 E6        30.32R WCI   1
THOMPSON       PTSUNNY   -4 -15  59 VRB2      30.42S
WINNIPEG       CLOUDY    32  27  80 N15       30.21R WCI  22
LYNN LAKE      CLOUDY    -4 -11  71 SE8       30.31S WCI -19
CHURCHILL      SUNNY    -11 -20  64 NW13      30.43S WCI -32
GILLAM         SUNNY     -4 -18  50 NW3       30.45R
$$
                ***SASKATCHEWAN***

CITY           SKY/WX    TMP DP  RH WIND       PRES   REMARKS
ESTEVAN        SUNNY     30  27  86 E9        30.15R WCI  22
KINDERSLEY     PTSUNNY   34  28  80 SE13G20   30.01R WCI  25
LLOYDMINSTER   SNOW      25  25 100 SE14      30.00F VSB 1/2 WCI  13
PRINCE ALBERT  CLOUDY    28  19  69 S12G17    30.17S WCI  18
REGINA         MOSUNNY   34  28  80 SE13      30.12S WCI  25
YORKTON        MOSUNNY   28  23  80 SE8       30.20S WCI  20
N. BATTLEFORD  SUNNY     28  27  93 SE17      30.09S WCI  16
LA RONGE       CLOUDY    27  19  74 SE12G17   30.15S WCI  16
SASKATOON      PTSUNNY   28  21  74 SE9       30.14S WCI  20
SWIFT CURRENT  SUNNY     37  34  87 SE10      29.99S
$$
NOTE: THESE ARE AUTOMATED STATIONS WITH LIMITED QUALITY CONTROL
      "FAIR" INDICATES FEW OR NO CLOUDS BELOW 12,000 FEET WITH NO
      SIGNIFICANT WEATHER AND/OR OBSTRUCTIONS TO VISIBILITY.
      SKY/WX - SKY CONDITION AND SIGNIFICANT WEATHER.
      TMP - AIR TEMPERATURE.    DP   - DEWPOINT TEMPERATURE.
      RH  - RELATIVE HUMIDITY.  PRES - PRESSURE.
      HX  - HEAT INDEX.         WCI  - WIND CHILL INDEX.
$




USA.gov is the U.S. government's official web portal to all federal, state and local government web resources and services.